RPM Weather Reports


Display with metric or nautical units.
time (UTC)temp
F
wind
direction
speed
MPH
gust
MPH
rain 1hr
in
rain 24hr
in
rain mn
in
humidity
%
barometer
mb
20260506043050 75 241 5.0 11.0 0.00 0.00 0.00 88 1007.8
20260506041554 75 174 2.0 7.0 0.00 0.00 0.00 88 1007.7
20260506040052 76 234 6.0 10.0 0.00 0.00 0.00 87 1007.5
20260506034549 76 166 4.0 9.0 0.00 0.00 0.00 86 1007.5
20260506033101 76 164 7.0 12.0 0.00 0.00 0.00 85 1007.0
20260506031547 77 186 5.0 12.0 0.00 0.00 0.00 84 1007.1
20260506030057 77 175 4.0 6.0 0.00 0.00 0.00 83 1006.7
20260506024547 77 174 4.0 9.0 0.00 0.00 0.00 83 1006.7
20260506023044 77 188 2.0 7.0 0.00 0.00 0.00 82 1006.5
20260506021557 78 179 3.0 6.0 0.00 0.00 0.00 81 1006.2
20260506020048 78 0 0.0 7.0 0.00 0.00 0.00 80 1006.0
20260506014547 79 206 2.0 7.0 0.00 0.00 0.00 79 1005.7
20260506013048 79 196 4.0 9.0 0.00 0.00 0.00 78 1005.6
20260506011607 79 220 4.0 10.0 0.00 0.00 0.00 76 1005.6
20260506010046 80 202 5.0 9.0 0.00 0.00 0.00 75 1005.5
20260506004546 81 236 4.0 11.0 0.00 0.00 0.00 74 1005.5
20260506003042 81 224 4.0 13.0 0.00 0.00 0.00 72 1005.6
20260506001547 81 216 4.0 14.0 0.00 0.00 0.00 72 1005.5
20260506000054 81 224 8.0 13.0 0.00 0.00 0.00 71 1005.6
20260505234544 82 220 6.0 12.0 0.00 0.00 0.00 71 1005.5
20260505233042 82 233 6.0 14.0 0.00 0.00 0.00 70 1005.3
20260505231543 82 186 7.0 14.0 0.00 0.00 0.00 69 1005.3
20260505230041 82 214 8.0 15.0 0.00 0.00 0.00 69 1005.2
20260505224543 83 238 7.0 13.0 0.00 0.00 0.00 68 1005.1
20260505223045 83 213 8.0 14.0 0.00 0.00 0.00 67 1005.1
20260505221554 83 180 7.0 15.0 0.00 0.00 0.00 69 1004.8
20260505220055 83 203 7.0 13.0 0.00 0.00 0.00 69 1005.0
20260505214552 84 224 5.0 14.0 0.00 0.00 0.00 69 1005.2
20260505213048 83 202 8.0 16.0 0.00 0.00 0.00 68 1005.3
20260505211545 83 151 7.0 16.0 0.00 0.00 0.00 68 1005.4
20260505210053 83 219 3.0 12.0 0.00 0.00 0.00 68 1005.7
20260505204555 83 248 6.0 14.0 0.00 0.00 0.00 68 1005.8
20260505203049 83 217 4.0 16.0 0.00 0.00 0.00 69 1005.9
20260505201550 83 193 6.0 14.0 0.00 0.00 0.00 68 1006.2
20260505200046 82 176 6.0 15.0 0.00 0.00 0.00 69 1006.4
20260505194556 81 244 11.0 17.0 0.00 0.00 0.00 69 1006.5
20260505193044 81 231 6.0 16.0 0.00 0.00 0.00 70 1006.8
20260505191548 80 207 5.0 17.0 0.00 0.00 0.00 70 1006.9
20260505190046 80 0 4.0 13.0 0.00 0.00 0.00 72 1007.1
20260505184552 80 273 3.0 17.0 0.00 0.00 0.00 71 1007.1
20260505183051 79 210 1.0 8.0 0.00 0.00 0.00 74 1007.5
20260505181544 78 219 8.0 16.0 0.00 0.00 0.00 77 1007.7
20260505180046 77 330 2.0 9.0 0.00 0.00 0.00 78 1007.8
20260505174548 76 253 4.0 15.0 0.00 0.00 0.00 79 1008.2
20260505173039 75 336 8.0 17.0 0.00 0.00 0.00 81 1008.1
20260505171548 75 250 6.0 13.0 0.00 0.00 0.00 81 1008.2
20260505170046 74 338 5.0 15.0 0.00 0.00 0.00 83 1008.2
20260505164554 73 250 6.0 13.0 0.00 0.00 0.00 84 1008.3
20260505163043 73 263 6.0 12.0 0.00 0.00 0.00 85 1008.2
20260505161555 72 294 6.0 15.0 0.00 0.00 0.00 86 1008.3
20260505153050 72 283 2.0 11.0 0.00 0.00 0.00 87 1008.3
20260505151543 71 188 6.0 13.0 0.00 0.00 0.00 88 1008.3
20260505124550 70 250 8.0 17.0 0.00 0.00 0.00 88 1006.9
20260505123049 70 226 8.0 14.0 0.00 0.00 0.00 89 1006.7
20260505121552 69 208 10.0 16.0 0.00 0.00 0.00 89 1006.4
20260505120100 69 229 10.0 18.0 0.00 0.00 0.00 90 1006.1
20260505114547 69 222 12.0 18.0 0.00 0.00 0.00 89 1005.9
20260505113058 69 239 10.0 19.0 0.00 0.00 0.00 89 1006.2
20260505111542 69 231 9.0 17.0 0.00 0.00 0.00 89 1006.2
20260505101543 70 240 9.0 15.0 0.00 0.00 0.00 88 1006.5
20260505100043 70 212 7.0 14.0 0.00 0.00 0.00 88 1006.6
20260505094542 70 261 8.0 17.0 0.00 0.00 0.00 88 1006.7
20260505093051 70 239 6.0 13.0 0.00 0.00 0.00 88 1006.9
20260505091543 70 229 8.0 14.0 0.00 0.00 0.00 88 1006.9
20260505090047 70 233 7.0 16.0 0.00 0.00 0.00 88 1007.0
20260505084551 70 235 11.0 19.0 0.00 0.00 0.00 87 1007.1
20260505083052 70 219 9.0 17.0 0.00 0.00 0.00 87 1007.1
20260505081551 70 234 9.0 16.0 0.00 0.00 0.00 87 1007.2
20260505080048 70 235 11.0 19.0 0.00 0.00 0.00 87 1007.4
20260505074542 70 226 10.0 20.0 0.00 0.00 0.00 87 1007.5
20260505073100 70 217 9.0 18.0 0.00 0.00 0.00 87 1007.6
20260505071540 70 252 10.0 20.0 0.00 0.00 0.00 87 1007.8
20260505070050 70 226 9.0 21.0 0.00 0.00 0.00 86 1008.1
20260505064553 70 226 10.0 18.0 0.00 0.00 0.00 86 1008.4
20260505063054 70 200 9.0 20.0 0.00 0.00 0.00 86 1008.3
20260505061540 70 274 8.0 19.0 0.00 0.00 0.00 85 1008.6
20260505060045 71 219 10.0 19.0 0.00 0.00 0.00 85 1008.7
20260505054546 71 203 11.0 21.0 0.00 0.00 0.00 85 1008.5
20260505053109 71 196 9.0 18.0 0.00 0.00 0.00 85 1008.5
20260505051544 71 228 9.0 17.0 0.00 0.00 0.00 84 1008.6